This demonstration page uses our WeatherBlox Daily Observations layout. Learn more.

Left ArrowRight Arrow

Hourly Observations for October 3, 2018

Temp ( °F °C ) Dew Point ( °F °C ) Humidity (%) Winds ( mph kmh ) Pressure ( in mb ) Visibility ( mi km ) Precip ( " mm )
12:54 am 00:54 Clear 74 23.3 65 18.3 74 74 S 18 30 29.77 1008 10 16.0934 0 0
1:54 am 01:54 Clear 73 22.8 65 18.3 76 76 S 17 28 29.76 1008 10 16.0934 0 0
2:54 am 02:54 Clear 73 22.8 66 18.9 79 79 S 17 28 29.73 1007 10 16.0934 0 0
3:54 am 03:54 Clear 72 22.2 67 19.4 84 84 S 16 26 29.7 1006 10 16.0934 0 0
4:54 am 04:54 Clear 72 22.2 67 19.4 84 84 S 15 24 29.67 1005 10 16.0934 0 0
5:54 am 05:54 Partly Cloudy 72 22.2 67 19.4 84 84 S 14 22 29.66 1004 10 16.0934 0 0
6:14 am 06:14 Mostly Cloudy 71 21.7 67 19.4 87 87 S 17 28 29.62 1003 10 16.0934 0 0
6:34 am 06:34 Mostly Cloudy 71 21.7 67 19.4 87 87 S 14 22 29.62 1003 10 16.0934 0 0
6:54 am 06:54 Partly Cloudy 71 21.7 67 19.4 87 87 S 17 28 29.65 1004 10 16.0934 0 0
7:54 am 07:54 Mostly Sunny 71 21.7 67 19.4 87 87 S 15 24 29.63 1003 10 16.0934 0 0
8:54 am 08:54 Mostly Sunny 74 23.3 67 19.4 79 79 S 18 30 29.62 1003 10 16.0934 0 0
9:54 am 09:54 Mostly Sunny 77 25 67 19.4 71 71 SSW 24 39 29.61 1003 10 16.0934 0 0
10:54 am 10:54 Sunny 82 27.8 67 19.4 60 60 SSW 20 31 29.58 1002 10 16.0934 0 0
11:54 am 11:54 Sunny 85 29.4 66 18.9 53 53 SSW 25 41 29.56 1001 10 16.0934 0 0
12:54 pm 12:54 Sunny 87 30.6 66 18.9 50 50 SSW 25 41 29.57 1001 10 16.0934 0 0
1:54 pm 13:54 Sunny 90 32.2 65 18.3 44 44 SW 29 46 29.55 1001 10 16.0934 0 0
2:54 pm 14:54 Sunny 92 33.3 64 17.8 40 40 SSW 23 37 29.54 1001 10 16.0934 0 0
3:54 pm 15:54 Sunny 94 34.4 58 14.4 30 30 WSW 22 35 29.56 1001 10 16.0934 0 0
4:54 pm 16:54 Sunny 94 34.4 57 13.9 29 29 WSW 17 28 29.59 1002 10 16.0934 0 0
5:19 pm 17:19 Sunny 94 34.4 53 11.7 25 25 WNW 14 22 29.56 1001 10 16.0934 0 0
5:54 pm 17:54 Sunny 92 33.3 52 11.1 26 26 WNW 17 28 29.65 1004 10 16.0934 0 0
6:12 pm 18:12 Hazy 81 27.2 55 12.8 41 41 NNW 31 50 29.68 1005 6 9.65604 0 0
6:54 pm 18:54 Sunny 71 21.7 54 12.2 55 55 NNW 26 43 29.78 1008 9 14.48406 0 0
7:54 pm 19:54 Clear 67 19.4 52 11.1 59 59 N 24 39 29.87 1011 10 16.0934 0 0
8:54 pm 20:54 Clear 64 17.8 46 7.8 52 52 N 22 35 29.94 1014 10 16.0934 0 0
9:54 pm 21:54 Clear 60 15.6 45 7.2 58 58 N 18 30 29.99 1016 10 16.0934 0 0
10:54 pm 22:54 Clear 57 13.9 43 6.1 60 60 N 20 31 30.03 1017 10 16.0934 0 0
11:54 pm 23:54 Clear 53 11.7 40 4.4 61 61 N 20 31 30.06 1018 10 16.0934 0 0

Powered by AerisWeather